Location: Barcelona
(41.3830°N, 2.1830°E)
Time: 00:26:24
(UTC+02:00)

ISS - Pass Details

Date: 24 May 2019
Orbit: 408 x 418 km, 51.6° (Epoch: 26 May)

Event Time Altitude Azimuth Distance (km) Brightness Sun altitude
Rises 22:35:57 0° 286° (WNW) 2,347 1.2 -13.5°
Reaches altitude 10° 22:38:37 10° 309° (NW) 1,488 0.5 -13.9°
Maximum altitude 22:40:48 16° 350° (N) 1,178 -0.7 -14.2°
Drops below altitude 10° 22:42:58 10° 30° (NNE) 1,493 -0.8 -14.4°
Sets 22:45:40 0° 53° (NE) 2,360 0.0 -14.8°
